Weather History for Truth Or Consequences, NM

Change the Weather History Date:

Saturday, March 2, 2013

  Actual Average Record
Temperature  
Mean Temperature 52 °F -  
Max Temperature 68 °F - 77 °F (2011)
Min Temperature 36 °F - 19 °F (2002)
Degree Days  
Heating Degree Days 13    
Month to date heating degree days 31  
Since 1 July heating degree days 2574  
Cooling Degree Days 0    
Month to date cooling degree days 0  
Year to date cooling degree days 0  
Growing Degree Days 2 (Base 50)    
Moisture  
Dew Point 15 °F    
Average Humidity 29    
Maximum Humidity 44    
Minimum Humidity 13    
Precipitation  
Precipitation 0.00 in - 0.04 in (2003)
Month to date precipitation 0.00  
Year to date precipitation 0.08  
Sea Level Pressure  
Sea Level Pressure 30.20 in    
Wind  
Wind Speed 6 mph (WSW)    
Max Wind Speed 13 mph    
Max Gust Speed 17 mph    
Visibility 10 miles    
Events      
T = Trace of Precipitation, MM = Missing Value Source: NWS Daily Summary

Daily Weather History Graph

Daily Weather History Graph

Search for Another Location

Airport:

Trip Planner

Search our weather history database for the weather conditions in past years. The results will help you decide how hot, cold, wet, or windy it might be!

Date:

Astronomy

Mar. 02, 2013 Rise Set
Actual Time 6:35 AM MST 6:07 PM MST
Civil Twilight 6:10 AM MST 6:31 PM MST
Nautical Twilight 5:42 AM MST 7:00 PM MST
Astronomical Twilight 5:13 AM MST 7:29 PM MST
Moon 11:30 PM MST (3/2) 9:23 AM MST (3/2)
Length of Visible Light 12h 21m
Length of Day
11h 31m
Waning Gibbous, 73% of the Moon is Illuminated
Mar 2
Waning Gibbous
Mar 4
Last Quarter
Mar 11
New
Mar 19
First Quarter
Mar 27
Full

Hourly Weather History & Observations

Time (MST) Temp. Windchill Dew Point Humidity Pressure Visibility Wind Dir Wind Speed Gust Speed Precip Events Conditions
12:53 AM 45.0 °F - 17.1 °F 33% 30.25 in 10.0 mi Calm Calm - N/A   Clear
1:53 AM 42.1 °F 39.2 °F 15.1 °F 34% 30.26 in 10.0 mi WNW 4.6 mph - N/A   Clear
2:53 AM 44.1 °F 40.1 °F 17.1 °F 34% 30.25 in 10.0 mi NW 6.9 mph - N/A   Clear
3:53 AM 45.0 °F 41.2 °F 17.1 °F 33% 30.25 in 10.0 mi NNW 6.9 mph - N/A   Clear
4:53 AM 42.1 °F 37.7 °F 17.1 °F 37% 30.26 in 10.0 mi NNW 6.9 mph - N/A   Clear
5:53 AM 37.9 °F 32.1 °F 16.0 °F 41% 30.29 in 10.0 mi NW 8.1 mph - N/A   Clear
6:53 AM 36.0 °F 31.1 °F 16.0 °F 44% 30.33 in 10.0 mi NW 5.8 mph - N/A   Clear
7:53 AM 45.0 °F 43.5 °F 17.1 °F 33% 30.33 in 10.0 mi NNW 3.5 mph - N/A   Clear
8:53 AM 51.1 °F - 18.0 °F 27% 30.32 in 10.0 mi NNE 3.5 mph - N/A   Clear
9:53 AM 54.0 °F - 19.0 °F 25% 30.30 in 10.0 mi East 4.6 mph - N/A   Clear
10:53 AM 55.0 °F - 19.0 °F 24% 30.29 in 10.0 mi ESE 6.9 mph - N/A   Clear
11:53 AM 57.9 °F - 17.1 °F 20% 30.25 in 10.0 mi SE 5.8 mph - N/A   Clear
12:53 PM 63.0 °F - 15.1 °F 16% 30.21 in 10.0 mi East 6.9 mph - N/A   Clear
1:53 PM 64.0 °F - 14.0 °F 14% 30.18 in 10.0 mi East 5.8 mph - N/A   Clear
2:53 PM 66.0 °F - 14.0 °F 13% 30.15 in 10.0 mi Variable 5.8 mph - N/A   Clear
3:53 PM 66.9 °F - 15.1 °F 14% 30.12 in 10.0 mi Variable 5.8 mph - N/A   Clear
4:53 PM 66.9 °F - 14.0 °F 13% 30.11 in 10.0 mi South 10.4 mph - N/A   Clear
5:53 PM 64.9 °F - 12.9 °F 13% 30.12 in 10.0 mi South 5.8 mph - N/A   Clear
6:53 PM 60.1 °F - 12.9 °F 16% 30.13 in 10.0 mi South 4.6 mph - N/A   Clear
7:53 PM 59.0 °F - 12.9 °F 16% 30.11 in 10.0 mi South 5.8 mph - N/A   Clear
8:53 PM 59.0 °F - 12.0 °F 16% 30.09 in 10.0 mi South 12.7 mph - N/A   Clear
9:53 PM 53.1 °F - 12.0 °F 20% 30.09 in 10.0 mi WSW 6.9 mph - N/A   Clear
10:53 PM 46.0 °F 44.8 °F 10.0 °F 23% 30.12 in 10.0 mi WSW 3.5 mph - N/A   Clear
11:53 PM 46.0 °F 42.5 °F 12.0 °F 25% 30.10 in 10.0 mi NW 6.9 mph - N/A   Clear